Theta_e
329 322 315 314 313 317 310 303 301 296 293 290 287 290 293 294 293 294 294 295 296 298 296 300 296 297 298 297 298 297 299 298 296 293 294 305 314 326 329 331 333 342 341 342 342 343 345 344 343 345 347 349 351 351 350 350 349 349 349 348 348 348 347 347 347 348 348 348 348 348 346 345 345 345 345 345 345 344 341 338 337 338 340 341 341 341 341 341 340 339 340 342 342 342 344 346 345
320 316 315 312 317 316 310 298 292 289 288 288 290 288 291 292 294 293 294 294 296 303 303 308 308 307 307 307 305 306 305 307 300 316 310 306 318 331 335 334 339 340 341 342 342 343 344 346 346 348 349 351 351 351 351 349 349 349 349 349 348 347 347 346 346 347 347 347 348 347 345 345 345 345 345 345 344 344 342 337 336 338 340 340 340 340 340 340 340 339 339 339 341 344 344 345 344
315 316 314 314 313 307 302 299 298 284 288 289 288 290 292 292 292 293 292 293 301 305 303 305 302 299 303 303 302 302 307 310 311 309 315 321 328 331 334 338 343 342 341 342 342 343 345 346 344 349 350 350 350 350 350 349 349 349 349 348 348 348 347 347 346 345 345 346 347 346 344 344 345 346 345 344 344 343 342 338 336 337 338 339 339 340 340 340 339 339 339 340 342 343 343 344 344
315 315 314 314 313 302 296 291 288 289 287 285 286 290 291 293 292 293 292 294 304 299 296 299 303 302 303 300 303 305 307 313 316 315 319 325 325 328 330 339 345 343 343 342 343 344 346 345 344 348 349 350 350 349 349 349 349 348 348 347 347 347 347 346 346 345 345 345 347 346 345 344 345 345 344 344 343 343 342 339 335 336 338 338 338 338 339 339 339 338 338 340 341 341 342 342 342
315 316 313 311 306 303 294 288 287 286 289 285 289 290 292 291 295 292 297 295 300 295 295 298 302 303 302 303 301 302 307 311 313 311 316 319 321 326 330 339 345 344 343 343 345 346 347 342 343 348 349 349 350 349 349 349 348 348 347 347 347 346 346 346 345 345 346 346 346 346 345 345 345 345 344 344 343 342 341 339 335 335 337 337 337 338 338 338 338 338 338 339 341 342 341 341 341
311 310 308 309 305 302 295 293 292 291 290 288 290 294 291 293 294 292 297 295 293 294 295 296 301 303 305 309 307 307 308 312 311 316 315 326 326 328 331 342 345 344 345 344 346 347 347 340 345 347 349 349 350 349 349 348 348 347 347 347 347 346 346 346 346 345 345 346 345 346 345 345 344 344 344 343 342 341 340 337 335 334 336 337 337 337 338 338 338 338 338 339 340 341 340 340 341
316 306 305 306 299 299 294 288 289 288 295 290 295 292 294 292 293 293 295 298 296 296 292 300 300 301 301 302 305 312 313 315 317 321 321 326 329 329 330 344 344 344 344 344 345 346 345 339 345 349 349 349 349 349 348 348 348 347 347 347 347 346 346 346 345 345 345 346 345 346 345 345 344 344 343 342 341 340 338 337 333 333 336 336 336 337 337 338 337 338 337 338 339 340 339 339 339
311 312 303 298 293 292 289 287 290 288 294 290 292 293 291 293 291 294 293 296 296 298 300 299 295 299 299 304 303 312 310 314 320 323 325 327 330 332 333 343 343 344 344 344 344 344 342 338 345 347 349 349 349 349 348 348 348 347 346 346 347 346 346 346 345 346 345 345 345 345 345 344 343 343 342 342 341 340 337 335 333 333 336 337 336 336 336 337 337 338 337 338 338 339 338 338 338
305 303 297 298 292 288 286 291 291 289 289 289 291 291 300 292 291 293 293 292 296 296 300 301 296 298 296 301 303 309 310 313 311 318 327 331 333 333 336 344 343 343 344 344 344 344 343 336 342 345 345 347 349 348 348 348 347 347 347 346 346 346 346 346 345 345 345 345 345 345 345 344 342 342 342 342 341 339 336 334 332 333 336 336 336 335 335 336 336 337 337 337 338 339 338 337 337
304 304 298 293 290 290 285 290 291 293 293 292 292 296 291 290 291 293 294 295 296 297 301 296 297 298 298 300 303 307 315 313 307 324 331 333 335 335 339 343 344 344 344 344 344 345 344 342 338 342 344 346 348 347 347 348 347 347 347 346 346 345 345 345 345 345 345 345 345 345 344 343 343 342 342 342 341 339 335 332 330 332 335 336 336 335 335 335 335 335 335 335 335 334 335 335 335
301 297 295 292 286 286 289 290 286 289 293 291 291 291 292 290 292 291 292 295 293 298 299 297 300 298 300 301 303 307 305 305 320 327 330 333 337 339 341 343 344 345 344 344 344 345 345 345 339 337 340 342 344 346 347 348 347 346 347 347 346 347 346 346 345 345 345 345 345 344 344 343 343 342 342 342 341 338 334 331 329 331 333 334 334 335 335 335 334 333 332 331 331 331 332 332 332
300 295 293 286 286 288 287 289 289 288 290 290 296 293 292 292 293 294 294 296 295 295 298 298 301 301 300 295 302 305 304 314 321 327 328 332 336 339 341 343 344 344 345 344 345 345 345 343 343 339 334 335 340 342 344 345 346 347 347 347 347 346 346 346 346 345 345 345 344 344 343 343 342 342 341 341 338 335 333 330 330 331 332 332 333 333 332 331 329 327 326 325 326 328 329 329 329
297 292 290 290 288 287 286 288 291 294 288 290 294 295 291 293 295 293 292 294 293 296 297 297 299 300 299 298 301 300 307 316 321 323 327 332 334 336 339 341 342 342 343 343 344 343 344 342 343 343 337 331 332 335 338 340 341 343 345 346 346 346 346 346 345 345 344 344 344 343 343 342 342 342 341 340 338 335 333 330 329 330 330 331 331 332 331 328 326 323 322 323 324 324 325 326 326
297 294 291 290 284 285 287 289 286 292 290 292 291 292 291 294 294 292 294 296 294 296 298 296 301 299 300 297 301 302 308 316 319 323 326 330 332 333 334 335 337 336 337 340 338 338 337 340 343 342 340 342 341 334 332 336 339 341 343 343 343 343 345 345 345 345 344 344 343 341 339 340 341 341 341 339 337 335 334 331 329 329 328 329 329 330 329 327 324 323 322 322 322 322 323 323 324
299 292 288 285 285 289 286 291 291 288 292 291 295 292 292 295 291 290 296 295 296 294 297 299 301 298 297 297 297 297 307 317 318 322 324 327 329 329 329 329 332 331 328 328 328 331 332 334 338 341 340 341 341 341 341 338 333 337 338 339 340 342 342 343 343 340 340 340 338 336 335 335 336 336 338 337 335 334 333 332 330 328 326 326 327 328 329 328 327 325 324 324 323 322 322 322 323
295 292 288 289 288 287 289 288 284 288 292 290 293 290 294 295 291 295 294 297 297 297 296 300 299 298 298 297 300 301 298 317 322 321 325 325 324 325 327 327 328 325 324 326 324 326 329 330 333 337 340 341 341 340 341 341 332 330 333 335 336 338 339 338 337 336 335 333 332 330 328 331 330 333 327 333 332 332 330 329 331 329 328 327 325 325 327 327 327 325 324 323 323 322 322 321 321
294 293 291 285 289 288 290 289 289 291 290 290 290 293 295 294 295 294 294 295 298 297 294 296 298 296 295 297 298 296 297 319 320 322 325 325 326 323 323 324 325 324 321 322 321 324 324 327 328 333 332 335 338 339 340 340 336 328 329 329 330 333 334 333 333 327 326 325 327 326 328 335 335 336 337 336 327 334 325 325 330 329 327 326 324 323 323 323 323 322 321 319 318 316 315 316 316
293 290 287 288 285 287 289 291 291 291 293 293 292 293 294 293 296 298 296 296 292 295 296 296 295 294 296 296 297 299 310 319 321 324 323 322 324 322 322 322 325 325 324 321 319 320 323 323 325 327 329 330 334 337 339 339 337 334 340 339 337 333 328 326 331 335 330 334 324 332 336 334 335 335 333 331 334 332 329 323 326 330 328 326 325 323 323 322 322 321 319 318 316 312 309 307 308
290 285 286 291 285 291 292 291 292 293 296 292 292 290 293 294 295 297 296 295 292 297 296 295 297 295 297 300 307 312 317 317 319 323 322 320 321 323 323 320 323 323 322 319 319 317 319 320 322 323 323 327 332 334 338 339 338 338 340 339 336 329 331 333 334 333 335 334 336 337 335 336 336 334 333 332 332 324 328 323 326 329 329 326 324 323 322 322 321 320 318 316 313 310 308 307 307
290 291 292 284 289 290 290 290 293 291 292 292 292 291 293 295 295 296 297 293 292 295 294 296 295 297 296 298 309 313 315 315 317 320 321 321 321 323 324 322 322 321 323 320 318 316 317 319 319 320 320 322 330 332 334 338 338 338 339 339 336 336 335 335 335 334 333 334 335 336 336 335 334 333 327 324 326 331 327 322 322 322 322 320 319 321 321 320 319 318 315 312 310 308 308 307 306
292 289 286 291 289 294 294 289 289 289 291 291 291 291 294 294 293 295 293 295 294 294 293 298 298 297 296 297 307 311 313 313 314 315 318 319 320 322 323 323 324 320 317 315 315 316 317 317 318 319 318 321 324 327 329 335 338 338 338 338 337 336 335 335 335 334 333 334 334 335 335 335 334 332 331 332 332 332 330 330 328 325 323 319 315 316 314 313 312 312 311 310 309 308 307 306 306
289 292 291 290 288 294 293 289 289 289 289 291 289 294 295 294 294 292 293 295 296 295 297 295 297 296 296 296 304 309 311 312 311 311 314 316 317 320 320 316 309 311 310 314 316 315 315 314 316 316 317 320 323 325 326 328 335 338 337 337 336 335 336 335 334 334 334 334 334 334 334 333 332 331 331 332 331 331 330 329 327 324 322 319 317 317 317 315 313 311 310 309 307 307 305 305 304
295 292 288 289 289 294 291 289 290 288 290 291 291 294 294 294 294 289 292 296 296 293 295 293 293 294 296 298 301 308 310 310 310 310 311 312 314 317 317 316 314 312 310 314 312 312 313 313 314 315 318 321 323 323 325 325 331 337 337 337 336 335 336 334 333 334 334 334 333 332 333 332 332 331 330 332 331 331 329 329 327 324 322 320 318 317 317 315 313 311 310 308 306 305 304 304 302
289 293 290 293 288 294 290 292 288 287 291 291 292 293 295 292 296 291 291 295 296 293 291 292 293 293 295 298 299 307 310 311 311 310 310 311 312 314 315 315 311 310 310 311 309 311 312 313 310 314 319 320 324 324 324 327 329 334 336 336 336 333 333 334 334 334 335 333 332 332 332 332 331 330 330 331 332 331 329 329 327 326 324 322 320 318 317 316 313 311 309 307 305 305 303 302 301
292 293 291 291 289 291 289 287 287 288 290 290 291 294 295 291 294 292 293 296 296 293 292 293 292 292 294 297 297 300 305 308 309 309 306 306 306 306 304 307 308 305 309 307 309 310 312 311 310 313 314 317 322 325 325 327 330 332 335 336 336 331 335 334 334 333 334 333 332 332 332 332 331 330 330 330 332 330 329 328 327 326 325 323 320 318 317 315 312 310 308 306 305 304 302 301 300
293 293 290 290 292 290 290 289 288 289 292 290 294 293 291 290 291 294 298 296 292 290 293 292 293 294 295 296 297 298 300 303 306 306 307 305 301 303 303 304 305 305 309 309 307 309 310 308 311 314 313 316 319 322 325 326 329 330 332 334 334 328 334 334 332 332 331 332 331 332 332 333 332 330 330 329 330 329 329 328 327 326 324 323 321 318 318 315 312 310 308 306 304 303 302 301 299
290 290 291 293 292 291 291 293 291 290 293 290 295 291 293 292 293 295 292 292 290 295 294 292 293 294 294 295 296 296 297 299 301 304 303 302 301 303 304 303 304 306 307 307 308 309 310 310 312 312 312 312 316 319 324 326 328 330 331 332 331 331 331 330 331 332 331 331 330 330 331 332 331 331 330 329 328 329 328 327 327 326 324 324 321 319 318 315 312 310 307 304 303 302 301 300 298
290 290 291 292 289 291 290 290 291 291 295 290 294 293 291 292 292 295 296 292 291 294 293 293 292 293 293 294 294 296 296 297 298 299 302 301 303 303 304 304 304 305 305 307 308 309 309 311 313 312 313 313 315 317 319 323 327 329 329 328 328 329 329 330 330 328 326 329 329 328 331 331 330 329 329 328 327 327 326 325 325 324 323 324 321 319 316 314 312 310 307 305 304 303 301 299 298
291 291 294 291 287 295 291 292 290 291 295 291 292 294 292 292 292 295 291 290 292 292 292 291 292 292 291 292 293 294 296 296 296 297 300 303 304 304 304 305 305 305 306 308 308 308 310 311 312 313 313 314 315 316 318 323 327 326 326 327 325 325 326 328 329 327 327 327 328 328 330 330 329 328 328 327 323 325 324 322 323 321 321 320 320 318 316 315 312 309 306 305 303 301 299 297 297
292 291 291 291 287 289 292 290 290 293 294 289 291 290 288 290 295 294 290 291 292 293 293 293 292 291 292 291 293 294 295 295 296 297 299 300 301 302 304 304 305 307 306 306 306 308 310 311 312 313 313 314 316 318 319 323 325 324 323 323 322 322 324 324 324 324 324 326 327 327 329 329 328 329 327 324 324 323 322 321 320 319 319 319 319 317 315 313 311 307 304 302 302 300 297 296 294
293 290 287 285 287 289 291 290 289 293 292 289 293 290 289 289 290 288 289 290 293 294 294 293 291 291 292 292 292 294 295 296 297 297 297 298 300 301 303 303 303 305 306 305 307 309 309 311 311 312 313 314 317 318 319 322 322 321 321 319 319 320 320 321 321 321 323 323 324 324 324 324 326 327 327 324 321 320 320 319 318 317 317 317 316 315 314 313 310 306 303 301 301 299 296 295 293
285 290 285 280 287 285 286 290 290 293 292 290 293 288 291 294 296 291 288 289 290 293 294 293 291 291 291 292 292 293 295 295 295 295 296 297 298 300 301 302 303 304 306 306 307 307 309 310 310 311 312 315 318 318 320 320 319 318 317 316 316 315 317 317 318 320 319 320 320 320 321 320 321 323 325 324 321 319 317 315 314 315 315 315 314 314 313 310 308 306 303 301 298 296 294 293 293
282 288 284 287 285 283 289 291 286 288 290 292 292 291 286 292 291 289 289 289 290 290 291 292 291 291 291 292 293 294 294 295 295 295 296 296 297 299 300 301 302 304 306 306 307 308 309 308 309 310 312 316 316 316 314 313 314 313 313 314 315 314 313 313 314 315 317 317 317 318 319 319 320 320 319 320 323 319 317 314 313 313 313 313 314 313 311 310 306 304 302 301 298 295 294 293 293
284 283 287 282 286 286 287 288 290 288 290 290 291 289 289 291 292 290 288 289 289 290 292 292 292 292 292 292 292 293 294 295 296 297 297 296 296 297 299 301 302 303 305 306 307 308 309 308 309 310 312 313 313 312 311 310 310 310 309 310 310 310 310 310 311 313 314 316 315 315 316 317 318 317 315 315 315 316 314 313 313 311 311 311 311 311 309 308 306 303 300 299 297 295 293 292 292
282 287 286 287 284 283 285 287 291 290 288 289 287 288 290 293 294 295 294 288 290 291 293 294 293 292 293 292 292 293 293 294 296 298 297 296 296 296 298 300 301 302 304 305 307 308 308 307 309 309 311 311 310 309 307 307 306 306 307 308 308 308 307 308 308 310 311 311 311 311 313 315 314 313 313 312 311 311 311 310 310 310 309 307 307 306 306 305 303 301 298 297 296 295 294 293 292
284 283 282 282 287 285 285 286 286 288 289 288 286 289 292 292 293 294 295 290 290 292 292 291 292 293 293 293 293 294 294 294 297 297 297 296 296 296 297 299 301 302 304 305 306 307 307 307 309 309 310 309 307 307 307 307 307 306 306 305 305 304 305 305 306 306 308 310 309 309 310 312 312 311 311 311 310 308 308 307 306 306 306 305 304 304 303 303 301 298 296 295 294 294 293 292 292
284 283 282 283 284 285 285 286 287 286 289 288 290 289 289 291 292 293 294 291 289 290 291 292 293 294 294 294 294 294 294 295 298 296 297 296 295 296 297 298 300 301 303 305 306 306 307 308 308 308 308 308 309 308 309 308 307 305 307 309 306 304 303 304 303 304 305 307 307 308 307 308 309 309 309 308 307 305 305 304 305 304 306 306 305 304 304 302 300 298 296 295 293 292 291 292 292
287 283 287 285 283 286 285 290 288 285 290 285 285 286 289 290 291 292 293 290 292 293 293 293 294 295 295 295 295 295 296 295 295 294 293 293 294 295 296 297 299 300 301 304 305 306 306 307 307 308 307 307 309 309 309 309 309 310 308 306 303 302 301 302 301 301 301 302 304 304 305 306 307 306 307 306 304 303 302 302 302 301 303 304 304 303 303 300 299 297 296 293 294 292 290 292 292
283 289 284 286 285 284 286 286 286 287 288 288 285 287 291 292 293 294 293 293 296 296 296 297 297 297 296 296 295 296 295 295 295 294 294 293 293 294 296 297 298 301 302 303 305 305 306 306 307 308 306 308 308 309 308 309 306 304 303 301 303 298 296 296 298 297 297 298 298 300 303 305 305 303 305 304 303 302 302 301 300 300 301 299 300 300 300 299 298 296 296 293 291 292 291 291 291
283 283 286 285 283 287 284 285 287 289 288 286 284 287 290 292 293 294 295 295 295 295 295 295 296 296 297 298 298 296 296 296 296 295 293 293 293 294 295 296 297 299 301 302 304 305 306 306 307 308 307 307 307 307 306 303 299 298 298 298 296 296 295 294 295 295 296 296 296 297 299 302 303 301 301 302 301 301 301 299 298 297 297 300 301 300 299 298 297 296 296 294 293 289 291 290 290
284 286 283 283 285 283 286 285 284 285 287 284 287 288 289 289 289 292 290 287 289 294 294 294 295 295 296 296 295 295 296 297 296 295 293 292 292 293 294 296 297 298 300 302 303 304 305 306 307 307 306 306 306 304 300 298 297 295 295 295 296 295 295 295 295 294 294 295 295 296 296 298 299 298 298 299 299 299 299 298 297 296 297 299 301 300 299 298 298 297 296 294 294 292 290 289 289
284 284 289 289 286 286 284 284 287 285 283 283 286 283 280 284 284 286 290 289 293 292 292 295 296 295 294 294 295 296 296 296 296 296 295 293 293 294 294 295 296 298 299 301 303 305 306 306 306 306 306 305 305 302 298 298 298 296 296 298 299 298 296 296 298 299 295 297 297 293 293 295 296 296 296 297 298 296 296 295 295 295 296 297 300 300 299 298 297 296 296 296 295 294 293 289 288
285 286 286 289 287 286 285 286 288 280 281 286 285 284 281 284 290 293 290 290 293 295 294 295 296 296 295 295 296 296 295 295 294 294 294 293 293 293 293 294 295 297 299 301 303 304 305 305 306 306 306 305 304 300 299 299 298 299 303 304 304 303 301 299 299 300 300 294 292 292 292 293 294 295 295 294 295 294 294 293 293 295 295 296 297 297 296 296 296 296 296 297 296 295 294 292 289
283 284 283 286 286 286 285 286 286 284 282 285 284 283 282 284 290 290 287 287 290 292 295 296 296 296 296 296 296 296 296 295 295 295 294 294 293 293 293 294 295 297 298 301 302 303 304 304 305 305 305 303 302 301 300 300 302 302 302 303 304 305 305 303 299 296 293 291 291 291 291 291 292 293 293 292 292 292 291 291 291 293 294 294 294 296 296 296 295 294 295 296 295 295 296 292 289
284 285 283 285 286 284 283 286 283 283 283 283 285 285 284 281 286 286 286 289 289 292 295 296 296 294 294 294 295 295 295 295 294 295 294 293 293 293 294 294 295 296 298 300 302 303 304 304 304 304 304 302 301 300 300 300 301 301 302 302 301 301 299 297 294 291 290 291 290 289 290 289 289 290 291 291 290 290 289 289 290 291 292 291 293 294 294 293 294 292 291 292 293 294 295 292 288
286 284 284 283 283 282 282 282 286 282 280 282 283 285 280 283 282 284 283 288 290 291 294 295 294 294 293 293 293 292 291 291 291 292 293 293 293 293 293 294 294 295 298 300 302 303 303 303 303 303 303 302 300 299 300 301 302 301 302 302 301 296 292 290 290 289 289 290 289 289 289 289 288 288 288 289 288 288 288 288 289 291 291 291 291 292 291 291 292 292 292 293 293 292 290 290 290
287 286 288 285 282 281 280 280 280 278 275 282 284 285 285 281 283 287 288 289 291 293 292 292 291 291 291 289 290 291 290 290 290 290 290 290 290 291 292 293 294 295 297 300 301 302 303 303 303 302 302 301 300 300 299 299 299 300 301 302 300 295 291 290 289 288 288 289 289 287 288 288 288 288 287 287 287 287 287 287 289 289 289 290 289 290 290 291 290 291 291 291 290 289 288 289 288
287 286 283 287 285 280 279 272 277 275 276 280 280 282 284 280 282 284 288 288 287 291 292 292 291 292 291 289 288 289 289 289 288 288 289 289 290 290 291 292 293 294 296 299 301 302 302 303 303 302 302 302 300 299 299 300 299 299 300 300 299 296 292 291 292 292 291 290 291 288 287 287 286 286 286 286 286 285 286 286 287 287 288 288 288 289 289 289 289 289 288 289 288 288 288 287 287
286 286 287 281 275 271 272 272 275 273 278 279 279 281 283 283 288 287 287 288 292 291 291 293 293 293 293 293 292 291 289 287 288 289 289 288 290 290 290 291 292 293 295 298 300 301 302 303 303 302 301 300 299 299 299 299 299 299 299 299 298 294 294 293 293 292 291 291 290 290 286 287 286 286 285 285 285 285 285 285 286 286 286 287 287 287 287 287 287 287 287 287 287 286 286 287 285
286 288 283 277 272 272 271 266 262 269 276 278 280 280 282 283 287 292 294 296 295 294 293 293 293 294 295 295 294 293 293 291 290 290 289 289 289 290 290 291 292 293 295 297 299 300 301 302 302 302 301 299 298 298 298 298 298 298 299 298 297 294 294 294 293 292 291 292 291 292 289 289 286 287 286 286 285 285 285 286 286 286 286 286 286 287 286 286 287 286 286 286 286 286 286 286 286
289 285 288 284 277 273 269 265 273 277 275 277 277 276 277 279 285 285 290 293 292 292 293 291 290 292 292 292 291 291 292 292 290 290 291 291 290 289 290 291 292 293 294 296 298 299 301 301 301 301 301 298 297 297 298 298 297 297 297 297 296 293 294 293 292 292 290 291 291 291 291 290 290 289 288 287 285 285 285 285 285 285 284 285 285 285 285 285 286 285 285 285 284 284 285 284 284
285 284 284 279 283 278 277 271 267 268 272 272 273 279 280 285 285 288 289 288 289 289 288 288 291 291 289 290 291 293 293 292 289 289 289 289 289 289 290 290 291 292 293 295 297 299 299 300 301 301 301 298 297 296 296 297 297 297 297 296 294 293 293 292 292 291 291 291 290 290 290 289 290 290 288 286 284 285 284 284 284 284 284 284 284 284 284 284 284 284 283 283 283 283 284 284 283
284 286 284 286 283 282 274 272 273 273 271 277 271 279 283 283 289 294 295 290 290 289 288 287 289 289 287 289 291 291 292 290 289 289 289 289 288 288 289 290 291 292 293 294 296 298 299 299 300 300 300 298 296 296 296 296 296 296 295 295 294 292 292 291 291 290 290 290 289 290 289 289 289 288 286 286 284 284 284 284 283 283 283 284 284 284 284 284 284 284 283 283 282 282 283 283 282
286 281 286 285 284 283 281 275 270 270 274 276 273 279 283 280 283 283 288 289 292 292 293 293 291 289 290 293 292 293 294 292 290 288 288 288 288 288 289 290 291 292 293 293 295 297 298 299 299 299 300 297 296 296 296 295 295 294 294 293 293 292 292 291 291 290 289 288 287 287 287 286 286 286 286 285 284 283 283 283 283 283 283 283 283 283 283 283 283 283 283 282 282 282 282 282 282
286 283 286 287 280 279 280 274 273 269 267 270 274 277 279 282 285 285 286 286 290 292 293 291 292 293 292 293 293 294 293 290 289 289 288 287 287 288 288 289 290 291 292 293 294 296 297 297 298 299 299 298 296 296 295 295 294 294 293 292 291 291 291 291 290 290 288 287 286 285 285 286 285 284 284 284 283 282 282 282 282 282 282 282 282 282 282 282 282 281 281 281 281 282 282 281 281
287 288 287 286 284 278 276 280 273 276 270 266 274 274 282 283 284 285 291 290 290 291 288 290 292 292 291 292 293 292 290 289 288 288 288 288 287 287 288 289 289 290 291 292 293 294 295 296 296 297 298 297 295 294 294 293 292 293 291 290 290 290 290 290 289 288 286 285 285 284 284 284 284 283 284 283 283 282 282 281 281 281 281 281 281 281 281 281 281 281 281 281 281 281 281 280 280
284 285 283 285 281 282 280 279 277 277 268 267 271 276 282 283 285 286 290 291 290 289 291 291 291 290 290 291 292 291 289 288 288 288 288 287 287 287 287 288 289 289 290 290 292 293 294 294 295 295 295 294 294 294 293 293 291 291 290 289 289 289 288 289 288 287 286 285 284 284 284 284 283 283 283 282 282 282 281 281 281 281 281 280 280 280 280 280 280 280 280 280 280 280 280 280 280
289 289 286 289 284 280 276 279 280 271 275 275 269 277 283 288 285 291 291 291 290 290 291 295 290 290 289 289 290 289 288 288 287 287 287 287 286 286 286 287 287 288 288 289 290 291 292 293 294 294 294 293 293 292 293 292 290 290 289 289 288 288 288 288 287 286 285 284 283 283 283 282 282 282 282 282 282 281 281 281 281 280 280 280 280 280 280 280 280 280 279 279 279 280 279 279 279
Wind_Speed
6 5 5 2 1 1 2 7 1 2 3 0 1 1 2 1 1 1 4 3 0 1 2 2 3 4 1 3 3 4 2 6 5 6 2 1 2 3 3 3 4 5 6 5 3 2 2 3 6 7 11 11 12 12 13 13 13 14 13 13 14 14 14 14 15 15 15 15 15 15 16 16 15 15 15 16 17 18 17 16 16 16 16 17 17 17 16 16 16 16 17 16 16 16 17 19 19
4 6 1 1 1 1 1 1 5 3 6 2 2 2 2 2 2 5 5 6 2 1 3 5 6 7 7 6 7 4 2 2 5 1 2 2 2 1 3 3 4 8 6 5 6 3 3 3 3 7 11 12 12 12 12 12 13 13 13 13 14 14 14 15 15 14 14 16 15 15 15 15 15 14 15 16 17 18 17 16 16 16 16 17 17 17 16 16 16 17 16 17 16 17 18 19 19
3 6 2 3 3 5 3 4 0 1 4 1 3 6 2 2 4 5 6 3 4 5 5 6 5 3 3 1 2 2 1 2 2 1 1 1 5 1 1 3 6 8 8 6 6 4 3 2 2 6 10 11 12 12 12 12 12 13 13 13 13 14 14 14 14 15 14 14 15 14 16 15 15 15 15 17 18 18 18 17 16 16 17 17 17 17 17 16 17 17 17 17 17 18 18 18 19
3 5 1 2 1 4 1 5 4 7 3 4 1 3 4 4 6 5 3 3 7 4 0 1 1 1 0 2 1 1 3 1 2 2 2 2 1 1 1 4 5 6 6 6 5 5 4 3 5 6 10 11 11 11 11 12 13 13 13 13 13 13 14 14 14 14 14 15 15 15 16 15 15 15 16 17 18 18 18 17 16 16 17 17 18 18 18 18 18 18 17 17 17 18 18 18 18
3 3 3 4 3 1 4 2 4 3 1 5 4 3 5 6 4 4 1 2 3 1 1 2 4 3 1 3 2 1 3 1 2 2 1 1 1 2 2 5 6 7 6 6 6 5 4 5 4 7 9 10 11 11 11 12 13 13 13 13 13 13 12 13 14 13 13 13 14 15 15 15 15 15 15 16 17 18 18 17 16 17 17 17 18 18 18 18 18 18 18 18 18 19 18 18 18
5 3 4 2 1 3 5 2 3 1 3 7 1 2 5 6 6 6 1 2 3 4 1 1 1 4 1 2 2 1 3 3 2 2 2 2 4 5 3 3 8 8 6 6 6 5 3 5 4 7 8 10 10 11 11 12 12 12 13 13 13 13 13 13 13 13 13 13 14 15 15 15 15 15 15 16 17 17 17 17 17 17 17 17 17 18 18 18 18 19 19 18 18 18 18 18 18
1 4 6 4 3 4 4 4 3 2 1 5 1 2 6 6 4 6 2 1 1 2 1 1 2 3 3 2 1 3 2 0 1 1 3 3 5 5 3 6 7 7 7 5 4 4 3 5 4 7 6 8 10 10 11 11 12 12 13 13 13 12 12 12 12 12 12 12 13 14 15 15 14 14 15 15 17 17 16 17 17 17 17 17 18 18 18 19 19 19 19 18 18 18 18 19 19
3 1 2 3 1 4 3 2 2 4 1 6 1 3 4 6 5 4 4 2 2 3 1 1 0 1 0 2 3 1 3 3 2 3 3 4 3 3 3 8 8 7 7 5 4 3 4 3 5 6 8 8 9 10 10 11 11 12 12 13 12 12 12 12 12 11 11 12 13 14 14 14 14 14 14 15 16 16 16 16 16 17 17 17 18 18 18 19 19 19 19 18 18 19 19 20 21
6 7 1 5 4 4 3 2 1 3 6 3 6 6 2 4 6 6 4 2 0 0 3 4 3 1 3 1 1 2 3 2 4 4 3 3 2 4 4 8 8 6 7 6 4 4 4 4 5 6 4 7 8 9 11 10 11 11 11 12 12 11 12 11 11 11 11 12 13 13 14 14 13 13 14 15 16 16 16 16 16 17 17 17 18 18 18 18 19 18 19 19 18 19 19 19 19
2 1 1 3 3 3 2 1 3 2 1 2 2 1 3 4 4 0 3 1 2 3 3 1 1 0 3 2 0 3 2 3 4 2 1 1 2 6 4 10 8 7 8 6 6 4 5 5 6 4 6 4 8 8 8 9 10 10 10 11 11 11 11 11 11 11 11 12 12 13 14 13 13 13 14 14 16 15 16 16 16 16 17 17 18 18 18 18 18 19 19 19 19 19 19 19 19
1 6 3 4 5 2 2 2 4 3 1 5 7 8 5 6 4 2 2 1 1 3 1 2 1 4 2 1 3 2 4 3 3 4 1 0 5 6 5 8 7 7 9 6 7 4 4 5 5 6 4 4 7 7 8 8 9 9 9 9 11 11 11 11 11 11 11 12 12 12 13 13 14 13 13 14 15 16 15 16 16 16 17 17 17 17 18 18 19 19 18 18 18 18 18 18 19
1 1 2 4 2 4 4 5 2 4 7 3 2 1 3 7 2 2 1 4 3 1 3 6 0 7 2 2 1 2 4 2 5 3 1 1 4 4 6 6 6 4 8 6 5 4 4 3 4 7 5 4 6 2 7 8 7 7 7 8 9 10 12 11 10 11 11 11 12 12 12 13 14 13 13 14 15 15 15 16 16 16 17 17 17 18 18 18 19 19 19 19 18 18 18 18 18
3 2 6 6 1 1 2 3 1 2 4 4 3 0 3 4 3 4 4 1 2 3 3 8 2 0 1 3 1 4 3 6 4 2 1 2 3 3 5 6 7 4 6 6 6 6 5 4 4 5 5 7 5 4 3 7 8 4 6 6 8 8 10 10 10 10 10 11 11 11 11 11 11 13 13 14 15 15 16 16 16 16 17 17 17 18 18 19 19 19 19 19 19 19 19 19 18
5 5 5 2 1 4 4 2 2 3 3 3 3 1 4 2 2 5 7 4 3 4 1 1 2 2 1 1 1 3 5 5 4 1 1 4 4 5 6 5 7 5 5 4 5 5 4 4 5 5 5 5 4 4 3 6 7 6 7 7 6 7 8 9 9 9 9 9 10 9 9 10 11 11 12 14 15 15 16 16 16 16 16 17 17 18 18 19 19 19 19 19 19 19 19 19 19
3 1 7 6 2 1 2 4 8 5 4 3 1 5 3 3 2 3 5 3 4 2 1 0 2 2 4 6 2 6 6 8 5 2 4 5 6 6 6 5 6 6 5 5 3 4 4 4 3 6 5 6 5 5 3 5 6 6 6 6 7 7 8 9 9 9 9 9 9 9 9 10 11 10 11 12 12 12 13 14 16 16 16 17 17 17 18 18 19 19 19 19 19 20 20 19 19
5 6 5 4 2 4 3 2 1 4 5 6 1 2 2 1 3 4 4 1 1 1 0 2 0 1 0 3 2 1 3 8 4 5 6 7 6 6 6 5 6 5 3 3 5 2 3 5 2 5 5 5 5 6 5 5 5 6 6 6 5 8 8 9 9 9 9 10 10 10 10 10 9 9 11 10 11 12 11 11 14 15 16 16 17 17 18 18 18 19 19 19 19 19 19 19 18
2 4 3 4 2 3 3 3 6 3 4 5 3 2 4 2 1 1 1 1 3 1 2 1 2 1 4 2 1 3 2 5 6 7 8 6 6 4 4 4 5 4 2 2 4 1 3 5 4 3 3 4 3 5 6 4 4 7 6 7 6 6 8 9 9 10 9 9 10 9 10 9 8 7 7 7 9 8 10 12 13 14 15 15 17 18 18 19 19 19 19 19 19 19 18 19 19
1 2 6 1 3 4 7 8 10 2 3 4 4 4 4 1 0 0 1 3 3 0 1 2 1 6 3 1 1 2 6 8 9 10 7 7 5 5 5 4 6 6 5 3 2 1 2 3 5 4 3 3 3 4 5 4 4 5 7 6 5 5 6 8 7 7 7 7 8 7 7 7 7 7 6 7 6 9 10 12 12 13 14 13 15 18 18 19 19 19 19 18 18 17 15 9 10
4 3 2 6 6 5 8 5 6 2 1 4 3 1 3 2 5 1 1 1 3 1 2 1 3 3 3 4 4 7 8 7 8 8 9 10 9 10 7 5 6 6 5 3 2 1 0 2 3 4 3 1 3 2 4 5 5 5 6 6 5 6 6 6 6 7 6 8 7 7 6 6 7 6 6 6 6 10 10 11 12 12 12 13 15 17 18 19 19 18 18 17 16 15 9 7 7
1 4 2 3 9 3 6 5 7 2 4 4 4 1 1 1 2 0 2 1 1 5 4 2 4 7 7 4 6 7 6 7 7 9 10 9 8 9 8 8 7 7 7 6 5 1 1 2 3 3 2 2 1 3 2 5 5 5 5 6 5 5 6 6 6 7 7 7 7 7 6 7 7 7 7 10 10 7 8 11 13 13 13 13 14 12 15 17 19 18 16 14 10 7 7 7 7
1 2 3 2 4 1 1 7 5 5 1 4 4 1 1 1 3 2 3 1 4 7 8 7 9 11 8 7 8 7 8 8 9 8 10 10 8 6 7 8 7 6 3 3 2 4 2 1 2 3 2 1 1 1 3 4 6 5 4 5 5 5 6 6 6 6 7 7 7 6 7 7 7 7 7 6 6 6 7 6 6 6 5 7 11 7 7 8 9 8 7 8 7 7 8 7 7
4 1 0 1 3 1 0 7 3 4 0 6 3 6 4 1 1 2 7 5 7 6 5 11 8 3 9 10 11 8 9 9 11 11 12 14 13 13 7 6 1 2 1 4 5 3 1 0 0 2 1 1 0 1 1 1 4 5 4 4 6 5 5 6 6 6 6 7 7 6 7 7 7 7 7 7 7 7 7 7 5 6 6 6 7 7 6 6 7 7 7 7 7 7 8 7 7
1 1 0 3 2 1 1 2 2 4 3 5 5 3 4 3 1 1 4 10 5 4 2 3 5 5 5 5 11 11 10 11 12 15 13 13 12 12 11 7 7 7 4 5 2 1 1 0 0 2 1 1 2 1 1 0 3 4 5 4 4 5 6 6 6 6 6 6 7 7 7 7 7 7 7 7 7 7 6 7 6 6 7 6 5 7 7 6 7 7 7 8 7 8 9 8 8
5 2 0 1 2 1 2 1 3 1 7 5 3 2 1 4 4 1 3 10 7 3 3 4 5 4 3 9 12 15 16 15 16 14 12 13 13 14 12 12 7 2 4 5 4 3 2 2 1 0 2 2 3 2 1 2 3 2 4 5 5 5 4 7 6 6 7 7 7 7 6 7 7 6 6 8 8 7 7 7 6 6 6 6 5 7 8 7 8 7 7 8 9 8 9 8 8
2 1 1 0 0 1 1 2 2 0 0 1 2 4 1 4 1 1 8 12 8 4 2 0 1 4 5 6 11 11 11 9 10 9 6 6 7 6 6 6 6 4 8 6 5 2 3 2 0 2 2 3 3 2 3 2 2 3 4 5 6 6 6 5 5 5 7 6 6 7 7 8 6 5 6 6 7 8 8 7 7 6 6 6 6 6 8 8 8 8 7 8 7 8 8 8 8
0 0 2 1 1 4 0 3 3 2 0 1 2 0 1 3 2 5 13 8 3 3 1 1 4 5 8 11 11 11 12 14 10 9 12 7 6 8 9 8 7 9 9 7 6 6 4 3 4 4 4 2 3 3 4 4 3 4 5 5 4 6 7 7 6 5 3 7 6 7 7 7 7 6 4 4 6 7 8 8 8 7 7 6 6 7 5 7 9 8 8 8 8 8 8 8 8
2 2 2 4 1 0 2 2 1 1 0 0 1 1 0 1 1 8 1 3 4 0 1 1 3 7 8 7 7 8 10 13 13 5 3 6 7 9 9 8 9 9 7 7 7 6 5 4 5 4 3 4 2 3 6 7 5 5 5 5 5 5 5 6 5 5 6 5 7 6 7 5 6 7 6 5 5 7 7 7 8 8 7 6 7 7 6 7 8 8 8 7 7 8 8 7 8
3 3 2 4 7 2 1 2 2 1 0 0 1 0 0 2 2 10 2 2 3 3 3 2 2 6 6 7 7 6 8 7 4 6 12 11 12 12 11 12 11 8 9 9 7 6 6 6 6 5 4 4 4 4 4 6 7 5 5 4 5 5 5 6 5 5 4 5 6 6 7 7 6 5 7 7 6 5 7 6 6 6 8 6 6 7 8 7 8 9 9 8 8 9 9 8 7
0 0 1 4 7 1 6 1 2 1 0 0 0 1 3 1 8 5 2 3 1 0 4 4 6 6 6 6 6 7 9 6 5 8 12 10 6 6 11 8 9 9 5 7 8 7 8 7 6 5 4 4 5 6 6 5 6 5 5 6 4 5 5 5 6 5 4 5 6 5 6 8 6 6 5 7 7 6 7 6 6 7 6 7 8 8 9 9 8 9 8 7 7 8 10 9 7
0 7 1 2 5 3 3 1 3 1 0 2 2 4 7 9 15 6 5 3 1 2 5 6 6 6 6 6 7 8 7 7 9 11 9 9 8 7 10 8 8 8 7 5 6 8 6 5 4 4 4 7 8 7 7 6 6 5 5 4 5 5 4 4 5 5 5 4 5 6 6 7 7 7 7 6 5 8 7 7 7 7 7 8 7 9 7 8 7 9 8 7 7 8 10 9 8
3 1 5 1 1 2 2 2 3 2 0 2 0 3 7 8 9 3 5 1 2 5 7 6 6 7 7 6 7 9 9 9 11 9 10 10 8 7 8 7 8 7 6 6 9 9 7 6 5 4 5 8 8 10 9 8 6 6 6 4 5 4 4 4 4 5 5 5 5 5 5 6 6 8 9 7 5 4 8 8 8 7 8 10 8 7 9 7 8 8 9 8 7 8 9 8 9
3 1 1 3 1 3 7 2 0 3 1 3 2 3 9 11 12 4 5 1 1 6 8 8 7 7 7 7 8 9 11 7 10 11 11 10 9 8 8 9 8 8 9 9 7 7 7 7 6 6 6 8 9 9 9 7 6 6 4 5 6 4 3 5 4 5 5 5 5 5 5 5 6 6 7 8 7 7 6 6 7 8 9 9 9 8 9 8 9 8 7 9 11 9 10 10 8
5 1 2 1 1 4 6 1 2 2 0 1 2 6 4 7 4 2 2 3 1 4 9 9 9 8 8 9 8 9 10 10 9 13 12 10 9 8 8 8 10 10 9 9 10 8 8 7 6 6 7 9 7 8 6 5 5 5 4 3 9 6 2 5 3 3 5 5 5 6 5 6 7 7 5 5 8 9 7 7 6 8 8 9 8 10 8 8 10 9 8 4 8 11 10 12 9
2 3 1 2 1 1 2 4 0 2 1 3 1 2 8 7 8 7 4 3 2 4 9 10 8 8 9 8 9 10 10 11 12 13 13 9 8 10 9 8 9 9 9 9 10 10 9 8 6 6 5 5 5 6 6 5 4 6 3 3 6 7 2 3 4 1 4 5 6 6 5 6 7 6 6 4 5 7 8 8 8 9 8 9 7 9 9 7 8 9 9 5 5 10 10 11 10
2 1 0 2 1 2 4 1 0 0 2 3 1 5 14 14 13 14 8 5 3 9 10 10 9 8 9 9 9 11 11 12 16 12 4 10 11 11 9 10 9 9 8 9 9 8 7 7 5 6 6 6 5 5 6 5 5 5 3 3 5 7 3 3 3 2 3 4 4 6 6 6 6 7 5 7 5 7 9 8 9 10 9 7 9 10 9 9 8 8 11 8 5 5 9 9 10
3 7 5 3 2 3 2 5 3 2 2 4 5 9 11 12 11 12 11 1 5 11 8 9 11 11 11 11 11 11 12 14 14 5 5 6 8 9 9 8 8 8 8 8 9 8 8 7 7 5 6 6 5 5 7 7 6 7 7 4 5 5 3 4 3 1 3 6 5 4 4 5 5 8 5 7 7 7 7 7 8 8 7 8 9 11 10 10 12 12 10 11 11 8 6 8 9
7 5 5 2 3 6 3 5 4 1 1 8 9 9 11 13 12 13 13 3 5 9 12 13 12 12 12 12 12 13 12 17 3 5 6 8 8 9 9 9 9 9 9 10 10 11 12 11 11 11 7 9 9 8 8 8 8 6 4 6 6 4 3 4 4 1 2 4 6 6 6 5 6 7 6 6 8 7 7 7 9 6 7 8 10 11 11 11 11 10 9 8 14 12 8 6 5
2 5 2 3 3 6 4 1 2 3 2 4 1 4 13 14 12 13 10 7 14 14 13 14 16 15 13 13 14 14 14 5 6 6 3 3 6 8 8 9 9 12 11 11 11 11 10 11 12 10 8 8 8 8 7 8 7 7 6 5 4 5 5 6 4 2 3 3 5 5 6 8 7 7 5 6 8 9 8 7 7 7 10 8 9 11 11 11 11 9 10 8 2 11 8 7 6
3 2 2 1 7 5 7 2 1 2 2 10 3 6 14 14 14 13 10 13 12 11 12 15 14 15 12 11 13 13 8 13 6 10 5 7 7 8 9 10 10 12 11 13 10 11 13 12 12 10 8 9 8 9 8 7 5 3 3 4 6 5 2 3 3 2 2 3 3 2 3 6 10 8 5 7 8 8 8 10 9 7 8 9 9 10 10 9 8 11 10 11 7 2 6 1 2
4 3 1 7 3 1 5 1 2 0 2 3 0 5 13 14 13 17 14 11 11 13 14 16 13 15 17 17 10 9 12 12 13 10 9 9 9 9 9 11 10 9 9 10 11 11 10 11 13 12 11 8 8 8 7 5 6 7 7 6 6 3 3 4 3 2 3 3 3 2 1 3 8 9 7 7 7 7 10 9 8 8 8 8 12 12 9 9 9 8 9 11 11 10 5 3 2
1 4 3 3 3 4 5 4 2 1 1 2 4 6 9 7 9 8 4 3 5 11 10 13 14 14 15 11 9 11 14 13 12 7 8 9 10 12 14 10 7 10 9 11 11 12 9 13 12 12 11 11 7 7 7 7 7 7 6 6 5 7 6 4 4 2 1 1 2 3 3 3 6 8 6 6 8 8 9 8 9 8 9 7 9 9 9 10 10 8 11 11 14 12 8 3 1
2 4 9 8 5 4 3 3 5 7 3 3 1 4 5 6 8 11 10 7 9 5 5 13 13 9 7 11 15 12 11 11 12 12 9 10 12 10 9 9 11 9 10 11 11 10 9 11 11 12 10 9 10 10 9 7 7 8 8 9 9 6 6 7 8 10 6 7 7 2 2 4 6 6 4 4 7 7 9 8 8 9 8 8 8 9 10 9 9 10 10 11 11 11 11 8 4
1 5 7 9 3 1 1 1 2 4 2 2 2 0 8 7 14 11 6 8 14 12 9 16 13 11 9 11 11 10 9 9 8 9 7 8 10 9 10 12 12 11 10 9 9 10 10 11 12 13 13 11 9 9 10 8 8 9 14 12 10 11 10 7 6 6 7 3 4 4 2 3 5 6 4 3 4 6 7 7 7 8 8 8 8 10 10 10 9 9 8 9 8 8 8 9 9
3 1 3 3 4 5 3 2 4 5 1 3 1 2 4 8 15 3 3 6 11 13 15 15 11 11 11 10 10 10 9 8 8 9 9 9 9 12 14 13 10 11 9 9 10 10 13 13 13 13 12 10 10 11 12 10 13 12 11 10 9 10 11 12 10 7 3 4 5 4 3 3 4 4 4 4 4 5 6 6 6 7 8 7 8 8 10 8 7 6 6 6 7 8 8 9 8
3 1 5 5 5 5 4 3 3 0 3 9 0 0 1 7 10 5 2 6 6 11 14 15 11 6 7 8 8 8 8 7 7 8 8 9 10 11 10 10 10 9 10 11 12 11 11 11 12 12 12 11 11 12 11 12 9 11 9 8 7 5 3 4 4 4 4 4 6 4 4 3 4 4 3 3 4 5 6 7 8 7 7 8 7 6 7 10 12 12 9 8 9 7 6 8 9
1 5 7 7 8 7 4 4 3 2 2 8 6 5 3 12 5 6 2 2 9 11 15 13 8 9 8 7 7 7 6 6 6 7 6 6 7 7 7 5 8 10 9 10 10 10 10 11 13 13 13 11 11 12 11 13 13 9 10 10 10 7 6 5 4 5 5 5 5 5 4 3 3 4 3 3 4 4 5 6 6 9 9 8 7 8 9 9 10 10 10 9 9 9 5 9 10
9 4 8 5 8 4 3 6 2 3 4 5 11 10 6 10 5 9 5 8 9 9 9 7 8 8 8 7 7 5 5 5 5 6 6 6 5 6 6 9 9 8 8 10 10 11 11 12 14 15 14 12 13 15 12 13 11 11 10 11 11 11 9 8 8 5 5 4 5 5 5 4 4 4 3 4 5 5 5 5 6 7 7 8 8 9 9 9 9 8 8 9 9 10 9 7 6
5 2 3 4 2 6 3 4 5 2 8 0 5 4 1 9 9 8 7 6 5 8 9 9 7 8 6 3 3 4 5 5 5 5 7 5 3 4 5 8 9 10 9 10 10 11 12 12 13 15 15 16 15 14 14 14 11 10 9 10 11 12 12 9 11 13 12 11 11 8 5 4 4 4 3 3 5 5 5 4 4 6 6 7 8 6 7 7 8 7 7 8 8 7 8 8 9
4 6 7 6 3 5 3 1 2 5 8 1 2 3 2 16 15 8 9 10 12 10 11 11 10 10 9 7 6 6 5 5 6 6 6 6 7 7 8 7 8 9 11 12 12 12 12 12 15 17 17 15 14 14 14 14 13 13 11 10 8 8 9 9 9 11 10 10 9 9 8 6 4 4 4 5 6 6 5 5 5 6 6 6 8 8 8 9 8 7 9 9 9 10 9 10 9
5 8 7 6 1 1 5 4 1 7 5 3 1 0 7 4 9 16 23 22 17 12 12 11 10 12 12 9 7 8 6 6 7 6 7 7 7 7 7 8 9 9 10 11 11 12 11 12 14 16 16 14 12 13 13 13 13 12 10 8 7 8 8 10 7 9 9 9 10 12 12 10 8 8 8 7 7 6 4 4 6 6 6 8 8 9 9 9 9 8 9 10 10 7 7 8 9
10 3 10 9 8 7 5 4 5 8 4 1 4 1 9 4 6 2 10 11 7 9 10 6 7 11 9 9 10 11 11 6 6 8 9 9 8 8 8 9 9 9 10 11 10 11 11 12 13 15 14 13 14 14 13 15 12 11 9 8 8 7 7 7 7 7 9 9 9 10 9 10 10 8 8 8 8 7 6 6 5 6 7 7 7 8 7 7 7 7 6 8 6 5 7 7 6
1 2 6 4 10 5 4 4 3 0 3 3 2 7 5 8 5 8 8 8 9 7 9 6 13 10 6 8 9 10 9 7 4 7 8 8 7 7 7 7 8 9 10 10 11 11 12 12 12 14 14 13 13 13 12 12 12 9 10 9 8 9 8 7 7 6 6 7 9 9 8 7 7 9 7 9 9 9 8 7 6 6 6 7 7 8 8 7 8 8 6 6 6 3 7 7 6
5 6 8 6 2 8 7 2 1 1 3 9 2 9 9 8 10 15 14 6 10 6 7 6 11 8 4 8 7 8 9 5 5 7 7 7 6 7 7 7 7 8 9 11 12 12 12 11 12 13 13 11 12 13 12 11 11 11 10 9 10 10 10 11 9 9 9 8 8 8 8 9 8 8 8 8 11 8 7 8 7 6 6 6 7 7 7 7 7 7 7 7 6 4 5 7 5
9 5 8 2 2 5 5 5 2 3 5 8 2 10 11 5 13 4 1 7 13 10 11 10 7 5 7 9 6 9 9 5 5 6 6 6 6 7 7 7 8 9 10 10 11 10 10 10 12 13 13 13 14 13 12 12 12 12 11 11 10 10 10 10 9 9 7 7 8 6 4 6 8 8 9 8 9 10 9 8 7 7 6 6 6 6 7 7 7 6 6 5 5 6 7 5 5
6 6 3 7 4 3 2 4 4 2 3 7 6 2 7 9 12 1 4 5 10 13 12 9 11 11 12 10 9 10 8 6 6 7 7 7 7 8 8 9 8 8 9 9 9 9 9 9 10 12 14 13 13 11 11 9 10 9 9 10 11 10 9 9 8 8 8 9 10 9 9 8 7 7 7 7 8 9 8 7 7 7 6 6 6 6 7 6 6 7 6 6 5 5 6 6 4
1 2 4 1 3 2 5 7 3 5 6 2 9 1 10 7 8 11 11 12 11 9 5 8 13 11 8 8 9 8 6 6 6 7 7 7 7 8 9 9 9 10 9 8 9 8 9 10 10 10 9 9 10 11 11 11 10 9 9 8 9 10 10 11 10 10 9 9 9 9 8 9 8 7 8 9 9 9 9 9 7 7 7 6 6 6 6 7 6 6 6 6 5 6 7 7 5
1 3 3 0 0 3 4 1 5 5 6 6 2 8 8 9 8 10 12 11 11 9 9 8 8 8 9 8 8 6 5 6 8 7 7 6 6 7 7 7 7 5 6 6 8 10 10 9 10 11 13 11 12 12 12 11 10 10 10 12 11 10 10 9 9 9 10 10 9 9 9 7 8 8 8 9 8 9 9 8 8 7 7 7 7 7 6 7 6 7 5 6 6 6 8 5 6
14 15 14 16 10 4 4 10 3 2 4 5 6 11 8 12 6 10 11 10 6 10 8 9 4 6 7 8 9 9 6 7 7 7 6 5 5 5 5 5 5 6 7 8 8 8 9 10 10 10 11 11 12 12 12 11 10 10 12 11 11 10 10 9 10 10 10 9 9 9 9 10 9 8 9 9 9 8 8 9 9 8 7 7 7 7 7 6 7 8 7 5 6 7 7 7 6
Wind_Direction
323 309 297 276 76 102 51 1 162 339 56 353 24 90 170 16 216 17 240 348 297 242 190 72 97 127 189 206 186 158 201 127 208 134 212 238 264 272 243 250 277 165 142 149 160 169 217 247 137 151 143 126 116 113 111 110 107 105 104 102 101 99 99 100 99 96 95 89 90 90 85 81 78 73 68 66 66 66 67 68 68 69 70 72 75 78 82 86 88 87 86 86 88 86 85 84 82
300 305 33 348 40 54 220 133 96 354 38 75 226 114 241 272 58 223 192 201 209 186 169 109 97 100 71 80 109 136 63 281 172 59 269 225 264 147 223 208 204 154 151 158 167 186 215 236 222 142 130 120 119 116 112 112 109 106 104 102 102 103 102 102 101 99 98 98 95 91 86 82 78 72 67 65 65 65 67 68 68 69 71 73 75 79 83 87 88 87 86 89 89 87 84 82 81
335 354 27 41 44 72 89 27 267 15 99 164 262 204 1 126 207 238 219 202 157 136 123 114 133 56 12 68 17 52 182 328 280 221 218 293 144 113 78 202 178 158 160 164 174 188 196 218 220 147 127 120 120 118 117 114 112 110 106 104 105 104 103 101 101 102 100 97 95 92 87 82 76 69 64 63 63 63 65 68 69 70 72 74 77 81 83 84 86 87 88 87 86 83 80 81 81
103 36 101 54 238 29 53 35 85 124 130 195 311 256 177 178 235 208 241 219 148 120 309 43 76 260 106 30 229 163 23 332 204 164 115 102 62 30 333 190 179 159 165 169 172 174 190 174 184 159 127 124 122 118 117 116 114 109 106 104 103 104 102 100 100 100 100 100 100 94 87 83 76 70 65 62 62 62 63 65 69 72 73 76 79 82 84 84 83 85 87 87 85 82 81 81 82
64 359 63 110 110 6 102 92 132 99 143 195 167 261 247 207 199 198 258 196 213 125 54 177 90 345 227 106 124 141 192 275 303 177 261 272 294 287 285 185 168 165 166 168 161 167 172 148 184 144 134 127 125 123 124 121 117 113 108 106 103 101 105 106 105 104 103 102 100 95 91 86 80 74 68 65 64 64 64 65 68 70 73 76 80 82 83 84 84 86 86 85 83 81 81 81 81
62 39 10 71 64 156 78 75 58 98 225 151 104 233 220 213 168 192 164 154 254 210 164 128 158 180 101 296 192 53 198 114 218 262 149 205 337 322 274 215 164 168 156 159 155 153 152 135 175 139 135 131 125 122 120 121 119 115 112 111 109 109 106 106 104 105 107 106 104 98 94 89 83 77 71 68 66 67 67 68 68 69 71 76 79 82 83 83 85 85 85 80 80 79 78 78 76
305 45 2 41 36 46 164 117 163 172 195 158 226 253 209 192 213 125 121 143 322 107 155 230 117 99 81 295 357 238 220 304 113 221 170 313 314 301 282 176 165 159 159 147 149 139 132 147 161 138 134 136 128 125 125 125 123 120 117 115 114 109 107 108 110 111 111 105 100 98 95 91 85 79 73 69 68 68 69 70 71 71 72 76 79 80 82 83 84 85 86 85 82 81 78 75 74
69 134 331 102 352 44 45 149 151 181 4 187 242 249 249 202 162 155 178 142 222 180 205 281 208 104 262 34 164 283 332 201 245 299 273 272 285 275 231 166 167 151 153 146 143 135 128 155 199 137 142 141 136 135 132 128 128 127 124 124 119 118 115 114 117 115 113 111 107 105 99 94 88 82 77 72 70 69 70 73 74 74 75 77 79 80 81 83 84 85 84 83 82 79 77 74 72
7 85 257 71 50 27 71 68 254 251 282 271 273 217 283 196 168 129 171 240 321 144 143 195 220 133 213 64 182 311 298 266 263 268 271 267 223 190 198 155 164 159 138 141 145 141 151 186 238 142 125 151 145 142 140 135 134 134 129 129 126 122 118 115 116 117 114 110 108 106 103 99 92 87 81 76 73 72 72 75 76 77 78 79 79 80 80 81 83 84 82 80 78 76 75 76 76
47 39 245 109 134 42 17 288 90 166 248 236 258 206 186 179 177 349 171 156 214 122 206 19 188 44 141 166 16 289 216 237 296 246 20 340 159 166 194 156 158 156 164 142 159 162 164 182 212 128 135 160 140 146 143 140 137 136 137 135 132 128 126 122 123 123 121 118 117 112 108 104 99 92 85 81 79 77 76 78 79 79 81 81 81 81 81 82 83 81 82 82 79 79 80 79 75
335 23 133 77 31 99 151 227 274 316 257 311 280 243 213 159 145 151 163 214 34 151 172 157 122 141 153 253 200 310 305 322 172 188 190 236 151 168 143 148 154 143 160 152 155 146 152 164 147 116 196 169 136 152 147 143 143 143 146 140 139 135 132 130 128 124 123 120 118 115 113 111 105 98 91 84 82 81 81 81 82 82 82 81 81 81 81 81 81 80 80 78 76 75 74 74 71
345 27 13 93 143 152 214 156 258 284 302 340 155 328 191 154 121 127 185 139 199 249 179 169 271 148 105 330 256 235 315 218 202 166 223 235 130 140 134 127 142 129 145 152 145 146 143 141 153 149 158 110 112 181 139 137 139 148 152 143 140 141 138 135 131 127 124 124 123 120 117 114 110 104 96 89 86 85 84 84 84 86 85 84 83 83 82 81 80 79 79 79 78 78 77 76 74
109 89 85 80 169 123 162 106 222 315 345 274 173 98 130 123 186 202 179 103 99 117 275 204 127 10 182 183 268 309 206 205 206 157 266 144 111 105 118 128 137 144 120 135 152 157 144 151 147 140 141 127 95 110 102 118 116 138 134 139 146 144 139 138 133 126 123 126 126 122 117 114 111 108 101 94 91 90 87 86 86 86 86 86 85 85 85 85 84 84 83 81 80 80 78 78 76
117 175 121 134 33 119 136 159 348 157 262 243 266 99 177 153 238 185 133 144 197 166 247 186 146 163 115 42 196 194 219 189 192 180 182 115 108 100 97 104 120 102 82 107 130 122 111 121 149 144 139 139 125 98 90 114 125 135 132 140 141 139 138 136 133 131 129 124 121 118 114 113 113 110 105 100 98 94 92 90 89 89 89 89 89 89 90 90 89 86 84 82 81 80 78 77 75
108 169 83 117 56 100 238 130 196 159 231 190 169 140 172 255 106 149 162 154 252 211 324 163 208 126 231 158 275 209 186 180 173 147 134 104 108 97 98 98 110 93 73 71 63 98 99 74 134 128 137 142 149 149 160 135 124 135 127 125 136 131 133 136 138 134 126 121 119 114 104 107 115 109 96 97 98 96 93 92 92 92 92 92 92 92 91 91 89 87 85 83 81 79 78 77 75
136 93 80 100 166 141 223 128 8 101 254 180 181 254 125 336 199 129 246 163 188 350 22 192 82 216 228 144 149 192 231 161 159 143 128 121 105 92 106 104 112 98 70 97 84 20 103 103 124 115 119 138 155 158 153 142 138 136 120 113 126 139 137 126 125 124 122 121 115 110 103 103 106 97 96 98 95 93 93 95 93 92 92 92 93 93 93 92 90 87 83 80 77 75 74 72 70
59 83 66 50 168 178 210 152 148 195 240 247 280 175 158 232 174 253 87 135 126 194 347 221 202 44 190 186 184 255 251 165 143 144 135 138 125 115 109 119 122 110 16 37 72 83 91 100 85 112 85 117 147 158 139 136 151 141 135 114 101 121 132 126 120 121 120 119 119 113 110 112 116 110 98 101 97 94 92 91 91 90 89 90 92 93 92 90 88 86 83 79 76 73 69 67 64
53 73 113 140 196 160 199 177 186 210 126 216 186 204 133 200 198 193 118 41 40 311 220 296 290 251 218 258 262 208 160 157 163 153 152 142 153 156 153 162 150 159 151 117 49 335 84 109 112 108 95 119 132 165 141 135 162 164 157 150 136 131 127 128 130 133 130 128 120 124 123 122 124 120 114 108 101 99 94 96 97 95 90 91 94 96 94 92 90 88 84 81 78 74 69 66 62
84 131 87 205 179 235 165 188 185 117 254 169 171 88 158 206 149 218 106 294 4 251 271 359 299 289 54 48 125 135 151 159 171 174 160 158 178 179 171 172 176 152 165 168 145 144 78 108 100 102 94 48 148 174 162 152 170 174 167 155 141 140 136 140 135 131 138 136 136 129 130 130 130 129 128 123 115 106 100 94 91 92 93 93 96 97 96 94 92 90 88 85 82 78 72 69 67
195 115 196 251 203 218 203 172 185 221 133 131 138 188 143 219 149 205 201 188 35 226 230 288 258 247 203 127 138 151 159 162 178 174 182 172 183 185 182 184 185 184 169 177 159 211 200 131 110 110 80 60 78 175 211 167 169 171 169 154 153 154 150 153 152 141 142 143 139 138 137 135 134 134 125 120 116 109 101 97 95 91 89 86 87 90 92 94 96 91 88 86 81 73 76 74 72
208 75 164 227 181 112 219 188 222 201 135 146 129 126 123 240 199 149 174 118 259 254 232 197 217 229 199 175 163 162 168 173 185 184 187 197 198 196 193 192 190 177 162 115 178 179 163 172 160 102 64 78 87 104 184 203 167 164 160 162 156 163 154 159 154 145 145 147 144 142 143 139 138 140 141 135 122 119 122 120 111 104 100 98 101 92 98 101 99 97 93 83 79 78 77 71 74
93 54 197 176 164 48 226 203 176 158 50 111 129 134 206 100 79 121 154 186 239 210 238 213 229 206 162 174 179 170 179 186 191 190 194 194 196 197 191 181 33 105 135 180 193 180 162 72 97 93 60 340 359 150 234 259 210 154 163 178 150 163 162 156 154 149 150 153 151 149 144 144 146 147 150 142 132 133 131 129 119 118 113 111 113 105 99 100 98 97 94 92 88 82 77 75 68
98 325 278 205 229 112 329 226 225 135 130 138 143 207 91 139 174 203 180 215 228 219 155 212 233 206 204 149 154 182 185 197 197 200 192 196 201 204 203 195 186 189 186 198 137 242 274 301 306 97 161 218 257 311 330 62 247 164 165 168 155 171 172 161 163 153 154 155 151 156 154 151 153 156 158 151 141 141 137 135 131 128 126 124 126 119 112 105 101 98 93 91 92 90 85 79 75
105 163 52 238 192 33 313 301 89 164 139 195 198 83 131 130 201 128 220 243 234 208 246 235 239 262 193 156 184 185 191 194 203 204 199 199 194 198 195 198 205 107 175 196 205 204 200 176 12 25 216 219 230 221 255 298 288 228 194 168 188 173 175 163 176 163 158 170 158 166 157 155 158 164 166 162 145 151 145 138 136 129 126 129 130 120 120 118 107 99 97 94 93 89 91 81 79
84 93 212 256 100 289 338 115 91 133 138 317 128 130 244 191 178 53 249 246 250 253 42 337 162 150 175 182 190 202 204 213 220 209 210 216 201 185 193 198 180 157 203 216 210 210 215 193 190 174 248 278 246 218 242 222 252 260 231 199 195 180 183 170 175 166 164 168 166 166 160 158 162 171 167 168 157 154 146 141 140 135 132 131 129 122 127 123 112 112 105 100 98 96 92 86 81
124 152 113 80 42 332 22 61 50 31 354 119 112 328 293 248 225 241 243 247 286 281 126 52 112 145 186 202 202 198 204 210 209 206 209 187 184 178 200 191 180 199 203 193 190 205 195 190 191 200 194 213 271 250 233 239 233 238 228 213 185 184 192 172 166 165 196 164 170 173 167 165 169 169 164 156 161 157 149 144 141 141 136 142 135 131 132 123 121 115 109 109 110 99 93 90 87
124 123 114 119 319 276 5 144 342 311 129 299 173 277 247 321 90 276 347 281 327 158 145 46 157 200 212 218 219 219 213 215 206 193 165 194 203 201 200 189 197 201 186 197 194 192 188 178 201 203 196 189 206 250 238 234 223 230 229 206 168 181 171 149 168 169 176 184 161 182 163 158 164 167 169 162 159 161 150 149 146 144 143 150 144 132 131 119 117 114 116 120 115 105 99 99 94
45 142 158 20 347 155 57 114 4 346 95 214 142 238 135 313 87 239 193 335 346 199 242 262 232 238 240 242 240 233 233 236 205 180 207 196 205 197 194 193 196 188 189 196 189 179 179 191 193 200 197 179 181 224 240 235 226 210 208 187 177 164 165 162 169 159 191 172 162 173 172 160 158 167 162 162 156 158 146 150 140 144 146 138 133 129 121 114 111 109 108 110 108 105 101 92 88
205 255 147 314 358 8 4 49 328 337 203 166 189 355 292 172 231 241 306 337 29 181 267 277 267 259 259 260 257 245 233 228 210 216 221 220 220 200 212 203 183 187 204 184 182 178 188 185 189 197 198 193 193 213 225 229 218 188 189 185 159 150 169 172 167 166 177 163 155 170 174 157 153 163 162 164 153 159 136 139 138 137 139 132 130 121 122 117 117 111 109 111 103 106 101 96 89
193 38 90 10 3 343 331 332 349 98 243 38 340 260 255 252 245 265 317 342 358 300 271 257 264 268 264 263 256 259 251 237 229 224 221 224 221 202 213 198 188 191 176 187 175 191 186 179 178 185 199 218 216 217 219 216 199 175 169 176 134 137 152 166 153 144 152 159 154 163 166 160 160 163 161 147 162 153 140 140 140 133 137 122 125 129 127 123 118 117 119 117 112 106 102 106 102
142 276 63 76 29 269 312 50 315 162 31 23 66 221 280 274 277 258 320 301 208 261 262 266 263 270 267 262 261 252 251 225 238 235 229 223 219 210 208 188 187 184 165 183 190 183 182 181 174 200 198 219 211 213 210 208 173 166 162 162 134 134 128 143 150 142 149 153 148 147 151 154 158 159 164 149 133 122 139 145 138 133 137 129 128 128 126 121 118 119 131 118 116 106 105 105 105
27 80 299 324 133 278 296 7 61 186 350 13 102 298 250 267 275 287 314 353 129 242 266 273 273 266 266 265 258 257 252 235 244 242 232 221 207 205 195 194 179 182 187 181 181 180 183 184 180 196 198 207 206 202 196 179 159 154 160 184 129 102 144 133 145 152 137 140 137 134 144 143 137 146 161 155 142 143 127 121 128 132 136 133 130 129 129 133 124 121 127 131 121 113 114 106 101
357 61 236 228 44 264 339 124 262 318 358 360 171 236 336 299 265 283 354 119 106 253 276 273 268 267 265 255 252 260 273 257 248 241 234 212 208 197 193 188 189 189 182 177 179 175 181 182 181 190 190 189 180 168 136 103 114 114 131 222 126 111 158 133 88 164 142 143 131 137 150 145 142 138 136 156 153 146 138 131 132 129 131 132 134 134 132 137 131 128 127 129 122 127 118 112 102
317 10 168 207 175 271 262 314 116 7 83 220 324 227 235 250 280 273 285 145 129 247 267 269 265 263 255 257 254 254 253 260 254 243 232 204 199 196 190 193 188 188 193 187 181 177 180 174 175 184 179 163 154 147 127 117 107 102 101 151 105 108 125 105 106 233 145 147 129 131 141 141 135 125 126 115 122 134 134 134 139 134 128 127 117 125 127 128 125 127 119 117 122 125 126 120 113
218 144 285 289 284 211 249 332 267 38 10 207 304 253 263 265 277 287 280 154 194 253 253 268 275 263 257 250 252 249 249 250 250 246 207 198 200 191 183 186 187 189 189 188 182 179 166 169 168 173 166 161 139 125 116 105 105 85 90 81 107 98 90 39 89 186 140 109 115 120 130 146 142 123 127 127 125 125 133 126 136 145 136 128 124 123 126 127 124 124 125 121 98 99 121 115 118
164 168 169 149 178 225 205 238 283 171 240 267 235 238 255 266 274 276 286 150 234 263 277 275 268 263 259 251 251 249 243 250 250 249 216 198 196 184 183 183 186 186 186 184 182 174 168 169 174 162 170 155 130 131 138 139 136 142 136 114 82 70 87 113 88 203 209 120 116 126 137 146 146 124 144 133 132 132 132 136 133 143 141 131 126 132 139 142 138 132 132 124 115 96 84 112 125
102 88 103 176 199 277 288 273 261 253 332 244 241 256 265 270 265 271 276 308 287 272 274 268 262 258 254 251 247 247 244 243 253 210 216 200 190 188 183 181 187 186 191 185 179 185 184 181 179 182 170 164 162 163 167 166 161 151 158 169 141 141 155 118 98 190 102 113 130 147 138 140 115 118 139 143 137 127 132 135 143 141 152 143 140 145 146 141 140 138 131 130 126 120 117 124 133
125 112 133 273 177 256 233 132 352 314 170 294 20 321 274 265 267 264 272 300 273 261 260 261 259 254 253 250 254 248 247 276 259 256 230 191 191 186 181 186 179 183 202 188 188 183 178 178 183 178 167 173 177 174 172 176 175 179 168 166 133 150 157 149 138 190 136 91 124 139 161 144 132 121 133 156 132 134 137 144 153 150 147 143 139 140 140 141 140 140 135 116 98 130 137 164 167
53 180 159 324 266 245 285 287 317 289 99 265 351 284 276 276 273 268 245 244 251 249 238 250 253 261 255 249 248 258 266 260 244 240 210 200 192 193 189 195 201 205 185 191 185 176 183 182 186 179 171 178 181 176 176 178 163 110 127 143 145 132 29 35 58 94 109 100 81 126 214 170 137 132 158 161 138 145 144 140 156 159 146 134 132 142 144 147 154 151 153 137 131 20 106 21 185
126 100 108 225 241 42 299 297 5 130 175 272 26 318 284 280 265 262 257 234 248 250 250 253 248 256 258 252 249 251 252 255 253 236 218 201 199 195 199 204 202 191 187 192 188 185 183 187 189 185 181 177 175 178 170 124 84 90 67 92 73 62 139 106 95 103 80 94 123 145 191 170 124 130 156 154 144 147 146 155 152 157 155 159 152 149 154 150 155 153 147 143 135 134 147 158 352
303 166 162 242 218 236 186 252 283 275 346 52 300 273 283 275 288 300 312 320 293 267 265 264 259 245 254 277 278 239 248 251 256 248 213 200 202 208 203 201 176 195 198 194 189 189 187 188 185 180 180 179 169 156 138 129 115 93 98 81 86 93 77 95 117 95 103 144 141 166 174 136 108 123 143 163 154 152 151 155 161 163 157 164 154 143 157 163 162 158 153 148 158 146 147 125 104
301 234 199 215 203 207 278 334 10 3 339 341 52 327 299 287 279 252 280 325 286 240 241 261 258 255 248 251 253 255 244 247 245 249 227 208 211 212 205 194 196 203 202 199 193 189 180 182 179 178 178 176 174 159 147 146 146 137 142 151 163 159 152 166 178 173 176 185 183 153 126 106 102 112 133 155 138 154 155 167 166 161 158 156 164 152 140 137 158 160 170 159 157 160 142 129 126
89 267 200 221 186 150 152 305 47 307 253 328 23 177 279 315 292 276 265 274 275 289 273 270 269 262 250 244 247 251 245 250 248 252 245 214 217 209 208 202 201 201 205 182 184 186 178 175 180 181 184 182 170 158 160 159 150 169 176 180 177 175 171 193 174 175 177 149 108 136 122 103 99 110 120 148 136 144 145 164 169 172 158 147 142 141 153 165 165 163 158 164 151 128 142 138 155
226 259 136 134 147 187 210 153 180 234 259 286 42 110 265 302 280 273 300 298 282 294 286 272 261 262 255 253 252 249 245 237 233 235 232 228 215 206 211 207 198 204 182 176 183 182 183 179 179 181 181 176 175 170 173 174 175 180 185 185 180 183 184 180 181 168 120 124 121 133 142 108 100 102 121 119 130 150 156 159 168 159 152 146 150 164 157 152 141 126 146 129 131 152 161 150 154
221 200 133 147 161 173 132 134 163 227 21 295 147 233 283 245 261 299 324 303 296 280 274 278 284 267 260 265 260 256 249 240 225 237 233 224 220 219 216 206 205 185 178 183 185 183 180 177 178 180 180 174 176 174 176 183 180 181 181 177 178 181 133 119 120 103 130 140 127 130 129 125 104 93 98 119 132 150 163 168 164 154 148 153 162 149 147 151 155 150 153 150 161 158 162 154 147
230 127 92 84 80 67 106 101 97 321 30 263 170 187 202 275 262 303 347 231 267 261 263 267 275 282 282 275 278 275 278 274 259 249 254 242 234 230 215 195 175 190 184 184 179 175 178 176 180 181 182 179 177 178 180 185 189 181 186 187 179 159 126 113 119 134 146 155 138 134 134 149 129 130 135 129 136 159 152 170 177 159 156 155 157 147 140 146 148 152 156 154 149 149 148 166 165
130 120 82 39 41 43 32 64 77 50 275 260 185 192 168 283 239 225 173 218 201 234 272 282 289 289 279 263 258 271 280 281 269 266 260 257 266 224 176 189 186 178 181 179 179 180 179 180 182 186 183 178 179 184 181 186 185 187 189 186 178 161 148 144 146 148 147 156 146 149 161 153 147 147 149 155 153 150 163 189 178 157 149 152 145 148 162 157 155 150 145 140 152 156 156 159 131
121 100 127 81 359 9 37 341 35 104 263 271 312 223 57 217 292 269 236 271 228 214 237 261 277 265 266 276 272 254 254 258 279 281 270 266 254 190 177 188 180 181 179 185 183 181 181 182 183 188 188 188 187 185 186 189 186 188 189 184 179 175 159 164 171 171 177 173 173 168 156 142 153 133 162 155 168 153 165 174 155 145 153 153 155 152 147 150 144 138 141 147 146 151 140 147 143
81 88 84 116 244 35 311 21 258 197 230 193 256 175 343 242 249 290 282 251 260 224 226 233 242 263 268 268 254 251 260 287 279 266 260 252 221 202 195 191 176 183 190 187 186 184 183 184 185 189 195 188 187 185 188 188 189 192 189 186 179 166 170 165 170 173 175 175 171 171 161 163 149 162 184 178 176 173 166 164 161 162 159 162 145 145 141 141 146 144 142 140 146 162 167 158 155
123 151 143 101 147 156 248 267 270 310 295 285 257 247 251 281 292 242 252 250 236 244 237 237 240 253 263 268 287 287 268 249 254 254 256 247 229 217 201 188 189 189 191 191 188 187 188 189 187 192 194 186 183 185 187 189 194 192 188 181 170 165 176 177 175 171 179 178 175 180 180 169 170 178 169 192 167 165 178 181 159 155 158 147 151 143 143 146 145 144 145 146 161 152 141 147 127
205 103 161 180 150 165 207 179 209 227 209 258 274 84 232 130 238 272 239 269 282 257 263 256 252 254 262 281 287 280 276 259 232 246 246 246 238 215 203 195 192 191 190 191 191 191 189 192 191 194 190 186 186 189 187 191 191 190 186 183 172 169 179 176 172 180 171 172 180 183 189 171 175 172 176 163 152 165 165 162 165 160 153 150 142 139 135 136 128 123 135 129 119 134 129 126 126
200 164 69 99 228 121 224 209 160 262 339 354 212 217 201 193 271 292 253 267 282 266 268 277 268 259 258 266 261 268 269 275 243 249 259 255 241 219 208 203 198 191 191 193 194 192 193 195 192 196 195 186 187 186 191 191 191 185 185 179 177 176 181 182 179 177 187 181 173 175 182 172 173 161 156 153 155 158 161 158 153 152 144 143 144 143 141 141 136 130 122 131 122 120 132 124 126
207 107 207 210 138 103 91 65 54 80 47 260 151 296 268 304 281 249 253 250 265 279 271 255 254 262 268 255 258 257 261 255 242 244 246 252 241 226 214 207 201 196 195 198 197 195 196 190 191 195 195 188 192 191 190 188 186 184 187 182 178 179 182 186 182 179 180 181 180 187 183 181 168 151 149 161 150 153 154 150 150 150 153 146 141 144 139 130 127 130 132 134 128 145 132 117 113
104 198 225 136 138 114 137 212 7 70 200 264 83 232 281 50 283 348 342 262 261 257 259 251 260 268 268 254 251 260 262 252 241 246 248 237 226 221 216 211 204 201 199 199 202 198 198 196 191 192 193 190 194 193 192 190 187 188 185 187 184 182 184 187 184 182 175 165 174 173 163 147 167 162 159 159 156 151 148 155 151 151 147 148 143 136 128 125 125 122 124 118 128 136 112 98 100
153 193 201 123 225 224 292 94 236 222 254 263 283 255 266 203 254 1 280 220 247 247 245 265 275 258 243 257 261 265 277 286 269 254 244 229 216 214 211 210 210 208 204 203 200 196 198 200 198 196 197 193 189 190 190 190 190 189 186 186 183 182 183 185 184 179 176 179 179 174 172 177 135 138 143 153 156 155 153 148 153 148 148 145 138 135 129 128 129 125 128 125 134 128 118 113 117
65 78 94 57 105 172 140 199 171 131 246 93 286 30 262 190 221 190 226 218 223 232 251 240 241 247 243 238 241 251 259 254 257 255 244 227 216 211 206 203 204 204 200 200 197 195 201 199 195 198 198 188 183 189 187 189 188 185 182 181 189 187 184 183 180 174 179 184 179 176 167 160 169 151 160 160 164 159 154 150 152 149 146 143 140 132 133 129 129 128 133 130 135 134 122 125 126
150 136 195 200 304 235 113 346 151 183 179 188 221 292 267 252 207 180 214 220 219 204 215 233 245 240 229 225 218 225 230 242 239 237 241 234 223 214 212 211 211 204 201 194 197 200 200 196 198 196 194 189 189 189 186 191 179 187 180 187 187 184 187 184 178 180 181 182 175 176 171 170 143 169 152 162 165 162 151 147 145 150 152 148 145 136 131 130 126 125 123 125 131 133 123 125 128
178 179 191 191 150 157 178 246 55 113 130 221 142 244 282 263 170 195 214 226 211 219 217 231 221 255 248 241 230 210 220 235 233 236 228 232 224 218 218 209 206 193 198 200 200 199 203 204 201 195 196 196 190 191 191 184 185 185 188 188 187 188 184 180 181 179 182 179 176 177 166 148 167 160 165 162 164 155 148 147 149 148 150 146 141 135 135 138 135 130 126 137 138 137 130 132 141